Home > Weather > Stafford > Past weeks

Flag for United Kingdom Past Weather in Stafford, England, United Kingdom — Yesterday and Last 2 Weeks

Now
39 °F

Chilly.


Feels Like: 36 °F
Forecast: 44 / 61 °F
Wind: 5 mph from North

Location: Shawbury

Current Time: May 25, 2016 at 2:25:46 AM

Latest Report: May 25, 2016 at 1:50 AM


Visibility: N/A

Pressure: 30.15 "Hg

Humidity: 87%

Dew Point: 36 °F

Location of StaffordLocation

Past Weather in Stafford — Graph

°F

Stafford Temperature Yesterday

Maximum temperature yesterday: 63 °F (at 1:50 PM)
Minimum temperature yesterday: 41 °F (at 1:50 AM)
Average temperature yesterday: 53 °F

High & Low Weather Summary for the Past Weeks

 TemperatureHumidityPressure
High73 °F (May 12, 3:50 PM)100% (May 10, 4:50 AM)30.21 "Hg (May 10, 4:50 AM)
Low36 °F (May 15, 3:50 AM)42% (May 24, 1:50 PM)29.56 "Hg (May 18, 5:50 AM)
Average54 °F79%29.89 "Hg
* Reported May 10 12:50 AM — May 25 12:50 AM, Stafford, Weather by CustomWeather, © 2016

Note: Actual official high and low records may vary slightly from our data, if they occured in-between our weather recording intervals... More about our weather records

Advertising

Stafford Weather History for the Previous 24 Hours

Scroll right to see more
 ConditionsComfort  
Time TempWeatherWind HumidityBarometerVisibility
12:50 AM
Wed, May 25
41 °FQuite cool.7 mph87%30.15 "HgN/A
11:50 PM
Tue, May 24
46 °FPassing clouds.6 mph76%30.18 "HgN/A
10:50 PM50 °FPassing clouds.6 mph71%30.15 "HgN/A
9:50 PM52 °FSunny.7 mph67%30.15 "Hg10 mi
8:50 PM55 °FScattered clouds.10 mph63%30.15 "HgN/A
7:50 PM57 °FPartly sunny.10 mph59%30.15 "HgN/A
6:50 PM59 °FPartly sunny.10 mph55%30.15 "HgN/A
5:50 PM61 °FPartly sunny.13 mph52%30.12 "HgN/A
4:50 PM61 °FSunny.12 mph48%30.15 "Hg10 mi
3:50 PM61 °FSunny.13 mph48%30.15 "Hg10 mi
2:50 PM63 °FSunny.13 mph42%30.15 "Hg10 mi
1:50 PM63 °FSunny.14 mph42%30.18 "Hg10 mi
12:50 PM61 °FScattered clouds.9 mph48%30.18 "HgN/A
11:50 AM59 °FPassing clouds.7 mph51%30.21 "HgN/A
10:50 AM59 °FPassing clouds.7 mph55%30.21 "HgN/A
9:50 AM55 °FPassing clouds.8 mph59%30.21 "HgN/A
8:50 AM54 °FPassing clouds.3 mph72%30.21 "HgN/A
7:50 AM52 °FPassing clouds.3 mph88%30.21 "HgN/A
6:50 AM46 °FPassing clouds.2 mph100%30.21 "HgN/A
5:50 AM45 °FPassing clouds.1 mph93%30.21 "HgN/A
4:50 AM45 °FPassing clouds.No wind93%30.21 "HgN/A
3:50 AM46 °FOvercast.1 mph93%30.21 "HgN/A
2:50 AM41 °FPassing clouds.1 mph100%30.21 "HgN/A
Weather by CustomWeather, © 2016

See weather overviewHow to use our weather pages